Niagara College

*Note: All times are displayed in the local standard time of the station location.
**Rain - Equipment is designed to accurately record liquid precipitation; under conditions when precipitation is not in liquid form, the data displayed may not properly reflect rainfall values.

Date Max Temp
(°C)
Min Temp
(°C)
Avg Temp
(°C)
Rain (mm) Avg RH (%)
Sat, Feb 17, 2018 -1.1 -6.4 -3.1 0.0 69.0
Fri, Feb 16, 2018 5.5 -5.4 0.2 0.0 76.4
Thu, Feb 15, 2018 10.1 3.0 6.5 0.4 95.0
Wed, Feb 14, 2018 4.7 -1.9 2.8 5.8 73.5
Tue, Feb 13, 2018 -0.2 -13.7 -6.7 0.6 71.9
Mon, Feb 12, 2018 -1.9 -9.7 -4.5 0.4 69.1
Sun, Feb 11, 2018 0.8 -4.0 -1.7 6.6 90.9
DateTime Avg Temp (°C) Rain (mm) RH (%)
Sun, Feb 18, 2018 04:00 -2.1 0.0 83.8
Sun, Feb 18, 2018 03:00 -1.6 0.0 82.8
Sun, Feb 18, 2018 02:00 -1.7 0.0 85.8
Sun, Feb 18, 2018 01:00 -2.0 0.0 87.8
Sun, Feb 18, 2018 00:00 -1.8 0.0 84.0
Sat, Feb 17, 2018 23:00 -1.6 0.0 78.0
Sat, Feb 17, 2018 22:00 -1.8 0.0 69.5
Sat, Feb 17, 2018 21:00 -1.6 0.0 66.0
Sat, Feb 17, 2018 20:00 -1.9 0.0 66.0
Sat, Feb 17, 2018 19:00 -1.7 0.0 61.8
Sat, Feb 17, 2018 18:00 -1.5 0.0 57.5
Sat, Feb 17, 2018 17:00 -1.4 0.0 57.3
Sat, Feb 17, 2018 16:00 -1.4 0.0 57.0
Sat, Feb 17, 2018 15:00 -1.2 0.0 56.5
Sat, Feb 17, 2018 14:00 -1.2 0.0 59.5
Sat, Feb 17, 2018 13:00 -1.3 0.0 58.8
Sat, Feb 17, 2018 12:00 -1.4 0.0 61.3
Sat, Feb 17, 2018 11:00 -2.1 0.0 64.3
Sat, Feb 17, 2018 10:00 -2.9 0.0 67.0
Sat, Feb 17, 2018 09:00 -4.3 0.0 72.0
Sat, Feb 17, 2018 08:00 -5.8 0.0 77.5
Sat, Feb 17, 2018 07:00 -6.0 0.0 79.0
Sat, Feb 17, 2018 06:00 -5.8 0.0 78.5
Sat, Feb 17, 2018 05:00 -5.8 0.0 80.3
Sat, Feb 17, 2018 04:00 -5.5 0.0 79.5
Sat, Feb 17, 2018 03:00 -5.4 0.0 76.0
Sat, Feb 17, 2018 02:00 -5.9 0.0 75.5
Sat, Feb 17, 2018 01:00 -5.6 0.0 74.5
Sat, Feb 17, 2018 00:00 -5.3 0.0 72.0
Fri, Feb 16, 2018 23:00 -5.2 0.0 71.8
Fri, Feb 16, 2018 22:00 -4.9 0.0 71.3
Fri, Feb 16, 2018 21:00 -3.9 0.0 60.8
Fri, Feb 16, 2018 20:00 -3.4 0.0 57.3
Fri, Feb 16, 2018 19:00 -3.1 0.0 54.5
Fri, Feb 16, 2018 18:00 -2.4 0.0 55.8
Fri, Feb 16, 2018 17:00 -0.8 0.0 56.8
Fri, Feb 16, 2018 16:00 0.4 0.0 56.5
Fri, Feb 16, 2018 15:00 1.3 0.0 56.8
Fri, Feb 16, 2018 14:00 1.6 0.0 59.3
Fri, Feb 16, 2018 13:00 1.9 0.0 66.3
Fri, Feb 16, 2018 12:00 1.9 0.0 75.0
Fri, Feb 16, 2018 11:00 1.3 0.0 85.5
Fri, Feb 16, 2018 10:00 1.4 0.0 84.5
Fri, Feb 16, 2018 09:00 1.1 0.0 85.3
Fri, Feb 16, 2018 08:00 1.6 0.0 86.0
Fri, Feb 16, 2018 07:00 2.3 0.0 88.0
Fri, Feb 16, 2018 06:00 2.0 0.0 92.0
Fri, Feb 16, 2018 05:00 2.0 0.0 98.3


asterix Register now to access more data! asterix